Location: Choisy
(48.7685°N, 2.4187°E)
Time: 22:10:56
(UTC+00:00)

Cosmos 1844 Rocket - Pass Details

Date: 24 October 2021
Orbit: 826 x 843 km, 71.0° (Epoch: 04 December)

Event Time Altitude Azimuth Distance (km) Brightness Sun altitude
Rises 17:19:37 0° 335° (NNW) 3,378 6.0 -6.6°
Reaches altitude 10° 17:22:21 10° 346° (NNW) 2,440 5.2 -7.0°
Maximum altitude 17:27:18 32° 48° (NE) 1,403 3.4 -7.8°
Drops below altitude 10° 17:32:14 10° 111° (ESE) 2,428 4.6 -8.6°
Enters shadow 17:33:37 - 117° (ESE) 2,893 5.0 -8.9°
